星链-4372 (STARLINK-4372 )

导读 | 星芒AI

STARLINK-4372 是SpaceX星链计划中的一颗低轨卫星,属于该计划的第四批发射任务。它运行在约550公里高的近地轨道,主要用于提供全球宽带互联网服务。该卫星采用先进的相控阵天线和激光通信技术,以提高数据传输速度和网络稳定性。作为星链系统的一部分,STARLINK-4372 有助于扩大互联网覆盖范围,特别是在偏远和网络基础设施薄弱的地区。

基本信息
目录编号:
53233
目录名称:
STARLINK-4372
国际标识:
2022-084AW
轨道中心:
EARTH
卫星名称:
星链-4372
卫星全名:
星链-4372 (STARLINK-4372 )
卫星状态:
在轨 (已飞行1248 天)
发射日期:
2022-07-22 UTC
国别 :
美国 (US)
星等 :
--
轨道信息
数据来源 国际轨道数据 AOE轨道数据
星历时间 2025-12-20T23:57:30+0800
15小时前
查看轨道信息
2025-12-20T11:00:00+0800
1天前
查看轨道信息
半长轴 6941.142km 6941.141km
偏心率 0.0001855 0.000207
轨道倾角 97.604° 97.604°
近地点辐角 146.399° 139.588°
升交点赤经 52.833° 52.304°
平近点角 213.735° 184.277°
近地点 561.717km 561.567km
远地点 564.293km 564.441km
周期 95.919分钟 95.919分钟
每日圈数 15.012616 15.012619
详细信息
固有亮度:
5
最大亮度:
2.5
卫星平台:
Starlink v1.5
覆盖范围:
全球
运营商:
太空探索技术公司
运营商所在国:
美国
制造商(研发单位):
太空探索技术公司
制造商所在国:
美国
使用方式:
暂无
卫星简介
星链(Starlink)计划是由太空探索技术公司(SpaceX)提出的一个巨型低轨卫星互联网星座项目,计划在2019年至2024年间在太空搭建由约1.2万颗卫星组成的“星链”网络,其中1584颗将部署在地球上空550千米处的近地轨道,并从2020年开始工作。该卫星仍在工作。
2D轨道图
3D轨道图
轨道高度分析图
轨道倾角分析图
轨道综合分析图
查看轨道综合分析图